This is the latest recevied weather packets stored in our database for station/object DG8SF-13. If no packets are shown the sender has not sent any weather packets the latest 10 day(s).
| Time | Temp. | Humidity | Pressure | Rain* | Wind** | Luminosity | Snow |
|---|---|---|---|---|---|---|---|
| 1788140786 | 15.56° C | 93% | 1015.5 hPa | 2.79 mm | - | - | - |
| 1788140459 | 15.56° C | 93% | 1015.6 hPa | 2.29 mm | - | - | - |
| 1788140151 | 16.11° C | 92% | 1015.6 hPa | 2.03 mm | - | - | - |
| 1788139836 | 16.11° C | 91% | 1015.7 hPa | 1.52 mm | - | - | - |
| 1788139526 | 16.67° C | 87% | 1015.7 hPa | 0.51 mm | - | - | - |
| 1788139211 | 16.67° C | 86% | 1015.4 hPa | 0 mm | - | - | - |
| 1788138890 | 16.67° C | 85% | 1015 hPa | 0 mm | - | - | - |
| 1788138576 | 16.67° C | 84% | 1014.7 hPa | 0 mm | - | - | - |
| 1788138240 | 17.22° C | 84% | 1014.9 hPa | 0 mm | - | - | - |
| 1788137928 | 17.78° C | 83% | 1014.8 hPa | 0 mm | - | - | - |
| 1788137618 | 16.67° C | 89% | 1015 hPa | 0 mm | - | - | - |
| 1788137303 | 15.56° C | 97% | 1014.7 hPa | 0 mm | - | - | - |
| 1788136993 | 15° C | 97% | 1014 hPa | 0 mm | - | - | - |
| 1788136681 | 15° C | 97% | 1013.9 hPa | 0 mm | - | - | - |
| 1788136369 | 15° C | 96% | 1013.9 hPa | 0 mm | - | - | - |
| 1788136057 | 14.44° C | 96% | 1014 hPa | 0 mm | - | - | - |
| 1788135745 | 14.44° C | 96% | 1013.9 hPa | 0 mm | - | - | - |
| 1788135420 | 14.44° C | 96% | 1014 hPa | 0 mm | - | - | - |
| 1788135109 | 14.44° C | 96% | 1014 hPa | 0 mm | - | - | - |
| 1788134773 | 14.44° C | 96% | 1014 hPa | 0 mm | - | - | - |
| 1788134463 | 14.44° C | 96% | 1014 hPa | 0 mm | - | - | - |
| 1788134147 | 14.44° C | 96% | 1014 hPa | 0 mm | - | - | - |
| 1788133826 | 14.44° C | 96% | 1014.1 hPa | 0 mm | - | - | - |
| 1788133513 | 14.44° C | 95% | 1014.1 hPa | 0 mm | - | - | - |
| 1788133190 | 14.44° C | 95% | 1014.1 hPa | 0 mm | - | - | - |
* Rain latest hour (hover to see other rain measurements)
** Current wind speed in m/s (hover to see current wind gust speed)